[[{"header":{"parameterUnit":"m.s-1","parameterCategory":1,"la1":30.2991,"la2":30.254,"lo1":-89.0895,"lo2":-89.0444,"dy":0.0017,"dx":0.0017,"nx":28,"ny":28,"refTime":"2024-09-03T09:00:00:Z","depth":0,"parameterNumber":2,"parameterNumberName":"U-component_of_WINDS"},"data":[0,0,0,0,0,0,0,0,0,0,0,0,0,0,0,0,0,0,0,0,0,0,0,0,0,0,0,0,0,0,0,0,0,0,0,0,0,0,0,0,0,0,0,0,0,0,0,0,0,0,0,0,0,0,0,0,0,0,0.123,0.123,0,0.1279,0.1279,0.128,0.1244,0.1243,0.1241,0.124,0.1296,0.1299,0.1302,0,0,0,0,0,0,0,0,0,0,0,0,0,0.1112,0.1114,0.123,0.123,0.1231,0.1279,0.1279,0.128,0.1245,0.1243,0.1241,0.1239,0.1295,0.1299,0.1302,0,0,0,0,0,0,0,0,0,0,0,0,0,0.1162,0.1115,0.123,0.1219,0.1218,0.1279,0.1279,0.128,0.1245,0.1243,0.124,0.1238,0.1294,0.1298,0.1303,0.1378,0,0,0.1316,0.1318,0,0,0,0,0,0,0,0,0.116,0.1167,0.122,0.122,0.1219,0.1253,0.1258,0.1313,0.1246,0.1235,0.124,0.1237,0.1284,0.1289,0.1304,0.1381,0.1383,0.1317,0.1319,0.1321,0.1323,0,0,0,0,0,0,0,0.1156,0.1164,0.1249,0.1221,0.122,0.1214,0.1218,0.1269,0.1273,0.1236,0.1233,0.1239,0.1284,0.13,0.1305,0.1384,0.1317,0.1321,0.1323,0.1325,0.1527,0.153,0,0,0,0,0,0,0.1153,0.1162,0.1248,0.1251,0.1183,0.1218,0.1223,0.1245,0.1272,0.1274,0.1241,0.1238,0.1293,0.13,0.1307,0.1398,0.1321,0.1325,0.1328,0.1525,0.1528,0.1531,0,0,0,0,0,0,0.115,0.1161,0.1246,0.1206,0.1216,0.1222,0.1247,0.1247,0.1263,0.1276,0.1277,0.1257,0.1292,0.13,0.1361,0.14,0.1328,0.1332,0.1521,0.1526,0.1529,0.1581,0,0,0,0,0,0,0.1147,0.116,0.1187,0.1206,0.1218,0.1297,0.1249,0.125,0.127,0.1265,0.1291,0.1293,0.129,0.1354,0.1365,0.1405,0.1335,0.1518,0.1523,0.1528,0.1576,0.1586,0.1595,0,0,0,0,0,0.1143,0.1201,0.1189,0.1199,0.1252,0.1299,0.1306,0.1301,0.1273,0.1302,0.131,0.1292,0.1393,0.1361,0.1373,0.1414,0.1516,0.1522,0.1528,0.1572,0.1584,0.1595,0,0,0,0,0,0,0.1188,0.1203,0.119,0.1255,0.1276,0.1293,0.1329,0.1314,0.1345,0.134,0.1333,0.1339,0.1403,0.1414,0.1377,0.149,0.145,0.1459,0.148,0.1492,0.1501,0.1498,0.1339,0,0,0,0,0,0.1204,0.124,0.1252,0.1308,0.1319,0.1322,0.1343,0.1337,0.1359,0.1368,0.1381,0.1405,0.1443,0.1468,0.1503,0.1577,0.1584,0.1612,0.1621,0.1629,0.1638,0.168,0.1693,0.1551,0.1551,0.1551,0,0,0.1241,0.1254,0.1276,0.1318,0.1333,0.1372,0.133,0.1373,0.1402,0.1375,0.1433,0.1443,0.147,0.1538,0.1569,0.155,0.1678,0.1637,0.1643,0.1647,0.1688,0.1701,0.1713,0.1555,0.1554,0.1553,0,0,0.1327,0.1339,0.1388,0.1405,0.1428,0.143,0.1442,0.1461,0.1467,0.1524,0.1505,0.1541,0.1605,0.1625,0.1644,0.1739,0.1725,0.1751,0.1802,0.1844,0.1855,0.1865,0.1901,0.1914,0.1759,0.1759,0.1759,0,0.137,0.1426,0.1416,0.146,0.148,0.1455,0.1507,0.1524,0.1558,0.1574,0.1551,0.1632,0.1648,0.1722,0.1745,0.176,0.1776,0.1749,0.1854,0.1864,0.1873,0.1908,0.1921,0.1762,0.1762,0.1761,0.1761,0,0.1478,0.1517,0.1555,0.1587,0.1611,0.1659,0.1658,0.1684,0.1676,0.1681,0.1741,0.1759,0.1799,0.1815,0.1808,0.1889,0.1876,0.1854,0.1815,0.189,0.1923,0.1936,0.1767,0.1766,0.1765,0.1764,0,0,0.1595,0.1621,0.1635,0.165,0.1674,0.1706,0.1753,0.179,0.1813,0.1838,0.188,0.1935,0.1915,0.1936,0.1931,0.1967,0.2045,0.1941,0.1942,0.1962,0.2137,0.2155,0.217,0.2034,0.2036,0.2038,0.2136,0,0.1684,0.1764,0.1757,0.1835,0.1872,0.185,0.1892,0.1913,0.1919,0.1953,0.1961,0.2001,0.197,0.1983,0.2017,0.2028,0.208,0.202,0.2075,0.2077,0.2071,0.2187,0.2206,0.2297,0.2148,0.215,0.2152,0,0.1798,0.1826,0.1906,0.1926,0.1942,0.1979,0.2013,0.2046,0.207,0.2072,0.2096,0.2086,0.2136,0.2095,0.2166,0.2126,0.2148,0.2157,0.216,0.2167,0.212,0.2199,0.2325,0.234,0.2171,0.2169,0.2168,0,0.1878,0.1935,0.1991,0.2004,0.2029,0.2056,0.2068,0.2089,0.2112,0.2143,0.2158,0.2194,0.2215,0.2245,0.2246,0.2215,0.2319,0.2277,0.2324,0.2325,0.2349,0.2348,0.2483,0.236,0.2359,0.2359,0.2359,0,0.1979,0.203,0.2027,0.2062,0.2119,0.2112,0.2169,0.2178,0.2198,0.2236,0.2219,0.2256,0.2253,0.2291,0.2293,0.2353,0.2362,0.2367,0.2367,0.237,0.237,0.2386,0.238,0.2363,0.2362,0.2361,0.2361,0,0.2078,0.2078,0.2138,0.2155,0.2161,0.2203,0.2219,0.2254,0.2258,0.2307,0.2318,0.2326,0.2369,0.2373,0.2424,0.2425,0.2499,0.2491,0.249,0.2489,0.2538,0.2534,0.269,0.2711,0.2572,0.2573,0.2574,0,0.2143,0.2182,0.2203,0.2227,0.224,0.2277,0.2301,0.2295,0.2321,0.2352,0.2383,0.2425,0.2458,0.253,0.2542,0.2581,0.2576,0.2628,0.2582,0.2584,0.258,0.2578,0.2583,0.2637,0.2639,0.264,0.2641,0,0.226,0.2258,0.2291,0.2325,0.2352,0.2379,0.2404,0.2425,0.2423,0.2452,0.2496,0.2522,0.2573,0.2616,0.2655,0.267,0.2657,0.2655,0.2669,0.2673,0.2672,0.2675,0.2517,0.2652,0.2651,0.265,0.265,0.2649,0.2346,0.238,0.24,0.2438,0.2456,0.248,0.2513,0.2522,0.2557,0.2598,0.2593,0.2642,0.2668,0.2718,0.2736,0.2776,0.2759,0.2778,0.2783,0.2789,0.2795,0.2663,0.2783,0.2783,0.2783,0.2782,0.2782,0,0.2464,0.2476,0.2511,0.2545,0.2576,0.2558,0.2585,0.2612,0.2655,0.2679,0.2711,0.2763,0.2805,0.282,0.2861,0.2891,0.2886,0.2902,0.2901,0.2905,0.2807,0.2792,0.2906,0.2905,0.2905,0.2905,0.2905,0.2905,0.2529,0.2586,0.2587,0.2654,0.2666,0.2712,0.273,0.2753,0.2772,0.2829,0.2863,0.2872,0.2893,0.2936,0.2974,0.2978,0.2995,0.3015,0.3016,0.2924,0.2912,0.29,0.2886,0.3018,0.3018,0.3111,0.3112,0.3113]},{"header":{"parameterUnit":"m.s-1","parameterCategory":1,"la1":30.2991,"la2":30.254,"lo1":-89.0895,"lo2":-89.0444,"dy":0.0017,"dx":0.0017,"nx":28,"ny":28,"refTime":"2024-09-03T09:00:00:Z","depth":0,"parameterNumber":3,"parameterNumberName":"V-component_of_WINDS"},"data":[0,0,0,0,0,0,0,0,0,0,0,0,0,0,0,0,0,0,0,0,0,0,0,0,0,0,0,0,0,0,0,0,0,0,0,0,0,0,0,0,0,0,0,0,0,0,0,0,0,0,0,0,0,0,0,0,0,0,-1.1868,-1.1868,0,-1.1869,-1.1869,-1.1869,-1.1906,-1.1907,-1.1908,-1.1909,-1.1908,-1.1907,-1.1906,0,0,0,0,0,0,0,0,0,0,0,0,0,-1.1896,-1.1895,-1.1868,-1.1868,-1.1868,-1.1869,-1.1869,-1.1869,-1.1906,-1.1907,-1.1908,-1.191,-1.1908,-1.1907,-1.1906,0,0,0,0,0,0,0,0,0,0,0,0,0,-1.1889,-1.1895,-1.1868,-1.1887,-1.1888,-1.1869,-1.1869,-1.1869,-1.1906,-1.1907,-1.1909,-1.191,-1.1908,-1.1907,-1.1906,-1.1868,0,0,-1.1901,-1.1901,0,0,0,0,0,0,0,0,-1.1889,-1.1888,-1.1884,-1.1885,-1.1887,-1.1889,-1.1879,-1.1869,-1.1906,-1.1899,-1.1909,-1.1911,-1.19,-1.19,-1.1896,-1.1868,-1.1868,-1.1901,-1.19,-1.19,-1.1899,0,0,0,0,0,0,0,-1.189,-1.1888,-1.1869,-1.1884,-1.1886,-1.1894,-1.1895,-1.1877,-1.1891,-1.19,-1.1903,-1.1902,-1.1901,-1.1898,-1.1897,-1.1868,-1.1901,-1.19,-1.1899,-1.1899,-1.1808,-1.1806,0,0,0,0,0,0,-1.1888,-1.1888,-1.1869,-1.1869,-1.1892,-1.1893,-1.1893,-1.1887,-1.1892,-1.1894,-1.1901,-1.1904,-1.1899,-1.1898,-1.1897,-1.1852,-1.19,-1.1898,-1.1898,-1.1809,-1.1807,-1.1805,0,0,0,0,0,0,-1.1889,-1.1886,-1.1868,-1.1879,-1.1878,-1.1891,-1.1883,-1.1886,-1.1883,-1.1893,-1.1895,-1.1895,-1.1901,-1.1899,-1.1875,-1.1852,-1.1898,-1.1896,-1.1811,-1.1809,-1.1806,-1.1763,0,0,0,0,0,0,-1.1889,-1.1886,-1.1872,-1.1879,-1.1877,-1.1847,-1.1882,-1.1885,-1.1881,-1.1884,-1.1888,-1.1889,-1.1902,-1.1877,-1.1873,-1.1851,-1.1895,-1.1813,-1.181,-1.1807,-1.1766,-1.1759,-1.1753,0,0,0,0,0,-1.189,-1.1859,-1.1871,-1.1869,-1.186,-1.1846,-1.1845,-1.186,-1.1879,-1.1864,-1.1871,-1.1889,-1.1856,-1.1874,-1.1871,-1.1848,-1.1814,-1.1811,-1.1807,-1.1769,-1.176,-1.1753,0,0,0,0,0,0,-1.1849,-1.1861,-1.1874,-1.1845,-1.1844,-1.1852,-1.1834,-1.185,-1.1844,-1.1847,-1.1866,-1.1867,-1.1839,-1.1842,-1.1861,-1.1811,-1.1838,-1.1834,-1.181,-1.1802,-1.1796,-1.1795,-1.1894,0,0,0,0,0,-1.1837,-1.1825,-1.1835,-1.1808,-1.1807,-1.1821,-1.1815,-1.1827,-1.1827,-1.1827,-1.1831,-1.183,-1.1819,-1.1811,-1.1802,-1.1767,-1.1768,-1.175,-1.1744,-1.1738,-1.1733,-1.1714,-1.1706,-1.1794,-1.1794,-1.1794,0,0,-1.1811,-1.1816,-1.1807,-1.18,-1.1801,-1.1787,-1.182,-1.1805,-1.1794,-1.1824,-1.1801,-1.1805,-1.1804,-1.1775,-1.1762,-1.1776,-1.171,-1.1734,-1.1729,-1.1727,-1.171,-1.1702,-1.1694,-1.1791,-1.1792,-1.1792,0,0,-1.1756,-1.1759,-1.1736,-1.1737,-1.1738,-1.1748,-1.1742,-1.1748,-1.1752,-1.173,-1.1752,-1.174,-1.1721,-1.1719,-1.1716,-1.1661,-1.1677,-1.1658,-1.1623,-1.1604,-1.1597,-1.1591,-1.157,-1.1563,-1.1654,-1.1654,-1.1654,0,-1.1723,-1.1704,-1.1723,-1.1705,-1.1701,-1.1729,-1.1706,-1.1705,-1.1703,-1.1699,-1.1715,-1.1692,-1.1694,-1.1664,-1.165,-1.1647,-1.1641,-1.1657,-1.1597,-1.1591,-1.1586,-1.1566,-1.1558,-1.1651,-1.1651,-1.1652,-1.1652,0,-1.1662,-1.1649,-1.163,-1.1628,-1.1623,-1.1602,-1.1617,-1.1609,-1.1622,-1.163,-1.1607,-1.161,-1.1601,-1.1596,-1.1608,-1.1567,-1.1575,-1.1594,-1.1621,-1.1574,-1.1556,-1.1549,-1.1647,-1.1648,-1.1649,-1.165,0,0,-1.158,-1.1589,-1.1582,-1.1581,-1.1585,-1.1574,-1.1556,-1.1548,-1.154,-1.1538,-1.1521,-1.1506,-1.1523,-1.1519,-1.1532,-1.1515,-1.147,-1.1536,-1.1536,-1.1522,-1.1424,-1.1408,-1.1399,-1.1482,-1.1481,-1.148,-1.1423,0,-1.1525,-1.1494,-1.1511,-1.1476,-1.1463,-1.149,-1.1473,-1.1473,-1.148,-1.1469,-1.1477,-1.1465,-1.1489,-1.1487,-1.1472,-1.1479,-1.145,-1.1483,-1.1465,-1.1464,-1.1462,-1.139,-1.1373,-1.132,-1.1416,-1.1415,-1.1414,0,-1.1457,-1.1453,-1.1417,-1.1423,-1.1419,-1.1403,-1.1398,-1.1388,-1.1388,-1.1395,-1.1391,-1.1407,-1.1388,-1.1417,-1.139,-1.1412,-1.1406,-1.1408,-1.1406,-1.1403,-1.1435,-1.1383,-1.1303,-1.1294,-1.1403,-1.1404,-1.1405,0,-1.1398,-1.1384,-1.136,-1.1359,-1.1366,-1.1355,-1.1357,-1.1359,-1.1354,-1.1349,-1.1345,-1.1338,-1.1333,-1.1327,-1.134,-1.136,-1.1311,-1.1341,-1.1314,-1.1314,-1.13,-1.1301,-1.1217,-1.13,-1.13,-1.1301,-1.1301,0,-1.1334,-1.1311,-1.1334,-1.1319,-1.1294,-1.1314,-1.1287,-1.1293,-1.1295,-1.1281,-1.1304,-1.129,-1.131,-1.1299,-1.1309,-1.1285,-1.1283,-1.1286,-1.1289,-1.1283,-1.1282,-1.1277,-1.128,-1.1298,-1.1299,-1.1299,-1.13,0,-1.1263,-1.1278,-1.1254,-1.1263,-1.1265,-1.1245,-1.1253,-1.1239,-1.1248,-1.123,-1.1227,-1.1241,-1.1228,-1.1242,-1.123,-1.1238,-1.1204,-1.1213,-1.1203,-1.1205,-1.1176,-1.1178,-1.1084,-1.1072,-1.1165,-1.1165,-1.1164,0,-1.122,-1.1203,-1.1211,-1.1203,-1.1204,-1.1193,-1.1187,-1.1206,-1.12,-1.1199,-1.1185,-1.1175,-1.1167,-1.1146,-1.1154,-1.1145,-1.1153,-1.1121,-1.1151,-1.1145,-1.115,-1.1149,-1.1147,-1.1113,-1.1112,-1.1111,-1.1111,0,-1.1142,-1.115,-1.1142,-1.1136,-1.1129,-1.1125,-1.1123,-1.1115,-1.1135,-1.1126,-1.1114,-1.1108,-1.1097,-1.1085,-1.1079,-1.1081,-1.1098,-1.1102,-1.1094,-1.1086,-1.1081,-1.1081,-1.1184,-1.1103,-1.1104,-1.1104,-1.1105,-1.1105,-1.1082,-1.1068,-1.1071,-1.106,-1.1061,-1.1059,-1.1046,-1.1054,-1.1044,-1.1036,-1.1049,-1.1033,-1.1034,-1.1027,-1.1027,-1.1014,-1.1028,-1.1018,-1.1015,-1.1011,-1.1006,-1.1085,-1.1014,-1.1014,-1.1014,-1.1014,-1.1014,0,-1.1003,-1.1007,-1.0997,-1.0994,-1.0985,-1.1005,-1.1004,-1.0995,-1.0981,-1.0981,-1.0973,-1.0959,-1.0948,-1.0956,-1.0947,-1.0935,-1.0943,-1.0932,-1.0932,-1.0931,-1.0996,-1.1002,-1.0926,-1.0926,-1.0926,-1.0926,-1.0926,-1.0926,-1.0961,-1.0937,-1.0946,-1.0922,-1.0926,-1.0911,-1.0909,-1.0906,-1.0906,-1.0889,-1.0881,-1.0887,-1.0889,-1.0881,-1.0872,-1.0874,-1.0869,-1.0854,-1.0859,-1.0919,-1.0927,-1.0935,-1.0941,-1.0854,-1.0854,-1.0796,-1.0795,-1.0795]}]]